Flag for Netherlands Weather past 2 weeks in Amsterdam, Netherlands

Now
81 °F

Passing clouds.


Feels Like: 81 °F
Forecast: 62 / 78 °F
Wind: 15 mph from West

Location: Amsterdam Schiphol Airport

Current Time: Jul 4, 2015 at 5:55:28 PM

Latest Report: Jul 4, 2015 at 5:25 PM


Visibility: N/A

Pressure: 30.09 "Hg

Humidity: 48%

Dew point: 59 °F

Location of AmsterdamLocation

Historic Weather in Amsterdam — Graph

°F

Amsterdam temperature yesterday

Maximum temperature yesterday: 82 °F (at 2:25 PM)
Minimum temperature yesterday: 64 °F (at 2:25 AM)
Average temperature yesterday: 74 °F

Past Weeks' High & Low Weather Summary

 TemperatureHumidityPressure
High91 °F (Jul 1, 3:55 PM)100% (Jun 20, 2:55 AM)30.24 "Hg (Jun 20, 2:55 AM)
Low50 °F (Jun 20, 2:55 AM)23% (Jun 26, 4:55 PM)29.68 "Hg (Jun 22, 7:25 PM)
Average65 °F71%30.06 "Hg
* Reported Jun 19 4:25 PM — Jul 4 4:55 PM, Amsterdam, Weather by CustomWeather, © 2015

Note: Actual official high and low records may vary slightly from our data, if they occured in-between our weather recording intervals... More about our weather records

Advertising

Amsterdam weather history for previous 24 hours

 ConditionsComfort  
Time TempWeatherWind HumidityBarometerVisibility
4:55 PM
Sat, Jul 4
81 °FPassing clouds.13 mph54%30.09 "HgN/A
4:25 PM82 °FPassing clouds.13 mph55%30.09 "HgN/A
3:55 PM81 °FPassing clouds.14 mph62%30.07 "HgN/A
3:25 PM81 °FPassing clouds.17 mph58%30.07 "HgN/A
2:55 PM82 °FSunny.18 mph55%30.07 "Hg10 mi
2:25 PM86 °FPassing clouds.13 mph55%30.07 "HgN/A
1:55 PM82 °FPassing clouds.12 mph62%30.07 "HgN/A
1:25 PM81 °FPassing clouds.15 mph66%30.07 "HgN/A
12:55 PM82 °FSunny.23 mph62%30.04 "Hg10 mi
12:25 PM86 °FPassing clouds.9 mph59%30.04 "HgN/A
11:55 AM86 °FPassing clouds.13 mph59%30.04 "HgN/A
11:25 AM86 °FPassing clouds.12 mph59%30.01 "HgN/A
10:55 AM84 °FPassing clouds.13 mph62%30.01 "HgN/A
10:25 AM84 °FPassing clouds.12 mph62%30.01 "HgN/A
9:55 AM82 °FSunny.13 mph66%30.01 "Hg10 mi
9:25 AM81 °FPassing clouds.10 mph70%30.01 "HgN/A
8:55 AM77 °FSunny.10 mph79%30.01 "Hg10 mi
8:25 AM77 °FPassing clouds.9 mph74%30.01 "HgN/A
7:55 AM75 °FPassing clouds.12 mph78%29.98 "HgN/A
7:25 AM75 °FPassing clouds.10 mph78%30.01 "HgN/A
6:55 AM73 °FPassing clouds.14 mph78%30.01 "HgN/A
6:25 AM73 °FPassing clouds.13 mph78%30.01 "HgN/A
5:55 AM73 °FPassing clouds.13 mph78%30.01 "HgN/A
5:25 AM72 °FClear.13 mph88%30.04 "Hg10 mi
4:55 AM72 °FClear.13 mph88%30.04 "Hg10 mi
4:25 AM72 °FClear.12 mph88%30.07 "Hg10 mi
3:55 AM72 °FClear.13 mph88%30.07 "Hg10 mi
3:25 AM72 °FClear.13 mph88%30.07 "Hg10 mi
2:55 AM72 °FPassing clouds.12 mph88%30.09 "HgN/A
2:25 AM72 °FClear.12 mph88%30.09 "Hg10 mi
1:55 AM72 °FClear.13 mph88%30.12 "Hg10 mi
1:25 AM73 °FClear.13 mph83%30.12 "Hg10 mi
12:55 AM73 °FClear.14 mph83%30.15 "Hg10 mi
12:25 AM73 °FClear.13 mph83%30.15 "Hg10 mi
11:55 PM
Fri, Jul 3
75 °FClear.13 mph78%30.15 "Hg10 mi
11:25 PM75 °FPassing clouds.14 mph78%30.15 "HgN/A
10:55 PM75 °FSunny.15 mph83%30.15 "Hg10 mi
10:25 PM75 °FSunny.14 mph83%30.18 "Hg10 mi
9:55 PM75 °FSunny.14 mph78%30.18 "Hg10 mi
9:25 PM77 °FSunny.13 mph74%30.18 "Hg10 mi
8:55 PM77 °FSunny.14 mph69%30.18 "Hg10 mi
8:25 PM79 °FSunny.13 mph65%30.18 "Hg10 mi
7:55 PM81 °FSunny.15 mph62%30.18 "Hg10 mi
7:25 PM81 °FSunny.13 mph58%30.18 "Hg10 mi
6:55 PM81 °FSunny.13 mph54%30.21 "Hg10 mi
6:25 PM82 °FSunny.10 mph55%30.21 "Hg10 mi
5:55 PM82 °FSunny.12 mph55%30.21 "Hg10 mi
5:25 PM82 °FPassing clouds.12 mph58%30.21 "HgN/A
Weather by CustomWeather, © 2015

See weather overviewHow to use our weather pages